Weather History for Pensacola NAS, FL

Change the Weather History Date:

Wednesday, January 16, 2013

  Actual Average Record
Temperature  
Mean Temperature 58 °F -  
Max Temperature 70 °F 59 °F - (-1)
Min Temperature 45 °F 41 °F - (-1)
Degree Days  
Heating Degree Days 7    
Growing Degree Days 8 (Base 50)    
Moisture  
Dew Point 59 °F    
Average Humidity 99    
Maximum Humidity 100    
Minimum Humidity 94    
Precipitation  
Precipitation 1.36 in - - ()
Sea Level Pressure  
Sea Level Pressure 29.97 in    
Wind  
Wind Speed 10 mph (NW)    
Max Wind Speed 14 mph    
Max Gust Speed 23 mph    
Visibility 6 miles    
Events Fog , Rain    
Averages and records for this station are not official NWS values.
T = Trace of Precipitation, MM = Missing Value Source: NWS Daily Summary

Daily Weather History Graph

Daily Weather History Graph

Search for Another Location

Airport:

Trip Planner

Search our weather history database for the weather conditions in past years. The results will help you decide how hot, cold, wet, or windy it might be!

Date:

Astronomy

Jan. 16, 2013 Rise Set
Actual Time 6:46 AM CST 5:12 PM CST
Civil Twilight 6:20 AM CST 5:38 PM CST
Nautical Twilight 5:51 AM CST 6:07 PM CST
Astronomical Twilight 5:22 AM CST 6:36 PM CST
Moon 9:48 AM CST (1/16) 10:34 PM CST (1/16)
Length of Visible Light 11h 17m
Length of Day
10h 25m
Waxing Crescent, 28% of the Moon is Illuminated
Jan 16
Waxing Crescent
Jan 18
First Quarter
Jan 26
Full
Feb 3
Last Quarter
Feb 10
New

Hourly Weather History & Observations

Time (CST) Temp. Windchill Dew Point Humidity Pressure Visibility Wind Dir Wind Speed Gust Speed Precip Events Conditions
12:07 AM 69.8 °F - 68.0 °F 94% 29.94 in 10.0 mi SSW 12.7 mph - N/A   Mostly Cloudy
12:56 AM 69.1 °F - 69.1 °F 100% 29.95 in 10.0 mi SSW 9.2 mph - 0.00 in Rain Light Rain
1:13 AM 69.8 °F - 69.8 °F 100% 29.95 in 3.0 mi SW 13.8 mph 23.0 mph 0.03 in Rain Heavy Rain
1:28 AM 68.0 °F - 66.2 °F 94% 29.95 in 4.0 mi SSW 11.5 mph - 0.06 in Rain Light Rain
1:56 AM 69.1 °F - 68.0 °F 96% 29.95 in 7.0 mi SSW 11.5 mph 20.7 mph 0.08 in Rain Light Rain
2:35 AM 69.8 °F - 69.8 °F 100% 29.94 in 10.0 mi SSW 9.2 mph - 0.00 in   Overcast
2:46 AM 69.8 °F - 69.8 °F 100% 29.94 in 10.0 mi SSW 11.5 mph - 0.00 in   Overcast
2:49 AM 69.8 °F - 69.8 °F 100% 29.94 in 10.0 mi South 12.7 mph - 0.00 in   Overcast
2:56 AM 70.0 °F - 69.1 °F 97% 29.95 in 10.0 mi South 11.5 mph - 0.00 in   Overcast
3:05 AM 69.8 °F - 69.8 °F 100% 29.94 in 9.0 mi South 10.4 mph - N/A   Overcast
3:19 AM 69.8 °F - 69.8 °F 100% 29.94 in 9.0 mi South 9.2 mph - N/A   Overcast
3:41 AM 69.8 °F - 69.8 °F 100% 29.94 in 8.0 mi SSW 12.7 mph - N/A   Overcast
3:53 AM 69.8 °F - 69.8 °F 100% 29.94 in 7.0 mi South 11.5 mph - N/A   Overcast
3:56 AM 69.1 °F - 69.1 °F 100% 29.95 in 7.0 mi South 11.5 mph - N/A   Overcast
4:03 AM 69.8 °F - 69.8 °F 100% 29.94 in 7.0 mi South 10.4 mph - N/A   Overcast
4:05 AM 69.8 °F - 69.8 °F 100% 29.94 in 7.0 mi South 10.4 mph - N/A   Overcast
4:20 AM 69.8 °F - 69.8 °F 100% 29.93 in 6.0 mi South 9.2 mph - N/A   Overcast
4:28 AM 69.8 °F - 69.8 °F 100% 29.93 in 6.0 mi South 9.2 mph - N/A   Overcast
4:56 AM 69.1 °F - 69.1 °F 100% 29.94 in 5.0 mi South 11.5 mph - N/A   Overcast
5:56 AM 69.1 °F - 69.1 °F 100% 29.94 in 6.0 mi South 12.7 mph - N/A   Overcast
6:56 AM 69.1 °F - 69.1 °F 100% 29.96 in 3.0 mi SSW 8.1 mph - N/A   Overcast
7:17 AM 62.6 °F - 62.6 °F 100% 29.97 in 3.0 mi North 6.9 mph - 0.00 in Rain Light Rain
7:25 AM 62.6 °F - 62.6 °F 100% 29.97 in 1.5 mi North 9.2 mph - 0.02 in Rain Rain
7:44 AM 60.8 °F - 60.8 °F 100% 29.98 in 7.0 mi NNW 8.1 mph - 0.02 in   Mostly Cloudy
7:54 AM 60.8 °F - 60.8 °F 100% 29.98 in 1.0 mi NNW 8.1 mph - 0.02 in   Overcast
7:56 AM 60.1 °F - 60.1 °F 100% 29.99 in 1.0 mi NNW 9.2 mph - 0.02 in   Overcast
8:03 AM 59.0 °F - 59.0 °F 100% 29.98 in 1.0 mi NNW 9.2 mph - N/A   Overcast
8:19 AM 59.0 °F - 59.0 °F 100% 29.99 in 0.8 mi NNW 9.2 mph - N/A   Overcast
8:31 AM 57.2 °F - 57.2 °F 100% 29.99 in 0.8 mi NNW 8.1 mph - 0.00 in Rain Rain
8:43 AM 57.2 °F - 57.2 °F 100% 29.99 in 1.0 mi NNW 10.4 mph - N/A Rain Rain
8:56 AM 55.9 °F - 55.9 °F 100% 30.01 in 0.5 mi NNW 9.2 mph - 0.63 in Fog , Rain Heavy Rain
9:03 AM 55.4 °F - 55.4 °F 100% 30.00 in 1.0 mi NNW 8.1 mph - 0.09 in Rain Heavy Rain
9:08 AM 55.4 °F - 55.4 °F 100% 30.00 in 2.0 mi North 6.9 mph - 0.10 in Rain Rain
9:14 AM 55.4 °F - 55.4 °F 100% 30.00 in 4.0 mi NNW 8.1 mph - 0.10 in Rain Light Rain
9:32 AM 57.2 °F - 57.2 °F 100% 30.00 in 7.0 mi North 9.2 mph - 0.10 in   Overcast
9:56 AM 59.0 °F - 57.9 °F 96% 30.00 in 10.0 mi North 5.8 mph - 0.10 in   Overcast
10:35 AM 55.4 °F - 55.4 °F 100% 29.99 in 10.0 mi North 6.9 mph - 0.00 in Rain Light Rain
10:51 AM 57.2 °F - 55.4 °F 94% 29.97 in 10.0 mi North 6.9 mph - 0.00 in   Overcast
10:56 AM 57.0 °F - 57.0 °F 100% 29.98 in 10.0 mi North 5.8 mph - 0.00 in   Overcast
10:58 AM 57.2 °F - 57.2 °F 100% 29.97 in 4.0 mi North 5.8 mph - 0.00 in Rain Light Rain
11:24 AM 55.4 °F - 55.4 °F 100% 29.96 in 2.5 mi NNW 10.4 mph - 0.00 in Rain Light Rain
11:37 AM 55.4 °F - 55.4 °F 100% 29.97 in 1.5 mi NNW 9.2 mph - 0.00 in Rain Rain
11:45 AM 55.4 °F - 55.4 °F 100% 29.96 in 3.0 mi NNW 10.4 mph - N/A Rain Rain
11:56 AM 55.0 °F - 55.0 °F 100% 29.96 in 4.0 mi North 8.1 mph - 0.17 in Rain Light Rain
12:05 PM 55.4 °F - 55.4 °F 100% 29.95 in 2.0 mi North 9.2 mph - N/A Rain Heavy Rain
12:21 PM 55.4 °F - 55.4 °F 100% 29.96 in 1.0 mi North 5.8 mph - N/A Rain Heavy Rain
12:30 PM 55.4 °F - 55.4 °F 100% 29.96 in 0.8 mi NNW 5.8 mph - N/A Rain Heavy Rain
12:43 PM 55.4 °F - 55.4 °F 100% 29.96 in 1.2 mi NNW 4.6 mph - N/A Rain Heavy Rain
12:56 PM 55.0 °F - 55.0 °F 100% 29.96 in 1.0 mi NNW 5.8 mph - 0.24 in Rain Rain
1:29 PM 55.4 °F - 55.4 °F 100% 29.95 in 1.8 mi North 5.8 mph - 0.02 in Rain Light Rain
1:37 PM 55.4 °F - 55.4 °F 100% 29.95 in 2.0 mi NNW 4.6 mph - 0.02 in Rain Rain
1:40 PM 55.4 °F - 55.4 °F 100% 29.95 in 1.2 mi NNW 8.1 mph - 0.02 in Rain Light Rain
1:56 PM 55.0 °F - 55.0 °F 100% 29.97 in 1.2 mi NNW 8.1 mph - 0.12 in Rain Rain
2:12 PM 55.4 °F - 55.4 °F 100% 29.96 in 3.0 mi NNW 5.8 mph - 0.00 in Rain Light Rain
2:56 PM 54.0 °F - 54.0 °F 100% 29.96 in 5.0 mi NNW 12.7 mph 17.3 mph 0.00 in Rain Light Rain
3:40 PM 53.6 °F - 53.6 °F 100% 29.96 in 10.0 mi NNW 10.4 mph - 0.00 in   Overcast
3:56 PM 52.0 °F - 52.0 °F 100% 29.96 in 10.0 mi NNW 12.7 mph - 0.00 in   Overcast
4:34 PM 51.8 °F - 51.8 °F 100% 29.99 in 10.0 mi NNW 6.9 mph - 0.00 in Rain Light Rain
4:56 PM 50.0 °F - 50.0 °F 100% 30.01 in 10.0 mi NW 5.8 mph - 0.00 in   Overcast
5:56 PM 50.0 °F - 48.9 °F 96% 30.01 in 10.0 mi North 6.9 mph - N/A   Overcast
6:19 PM 48.2 °F - 48.2 °F 100% 29.99 in 10.0 mi North 9.2 mph - 0.00 in Rain Light Rain
6:56 PM 48.9 °F - 48.9 °F 100% 30.01 in 10.0 mi North 6.9 mph - 0.00 in Rain Light Rain
7:56 PM 48.9 °F - 48.9 °F 100% 30.01 in 10.0 mi North 4.6 mph - 0.00 in Rain Light Rain
8:13 PM 48.2 °F - 48.2 °F 100% 30.01 in 10.0 mi NW 5.8 mph - 0.00 in   Overcast
8:56 PM 48.9 °F - 48.9 °F 100% 30.02 in 10.0 mi Calm Calm - 0.00 in   Overcast
9:56 PM 48.0 °F - 46.9 °F 96% 30.02 in 10.0 mi WNW 6.9 mph - 0.00 in Rain Light Rain
10:56 PM 46.0 °F 43.9 °F 46.0 °F 100% 30.04 in 4.0 mi WNW 4.6 mph - 0.00 in   Overcast
11:56 PM 45.0 °F 41.2 °F 45.0 °F 100% 30.03 in 10.0 mi NW 6.9 mph - N/A   Overcast